,,,PA_Meas_PMT16A,,PR_Meas_QMR101_102,,RH_Meas_QMH101,,SR_Meas_QMS101,,TA_Meas_QMH101,,GenWind,,GenWind,
date,time,status,PA,status,PR,status,RH,status,SR,status,TA,status,DirAvg,status,SpdAvg,
2010-05-15, 00:00:04,VALID,1001.23,VALID,0,VALID,86.2064,VALID,0,VALID,27.2675,VALID,77,VALID,0.617578,
2010-05-15, 00:01:04,VALID,1001.23,VALID,0,VALID,86.2064,VALID,0,VALID,27.2869,VALID,49,VALID,1.06953,
2010-05-15, 00:02:04,VALID,1001.22,VALID,0,VALID,86.1606,VALID,0,VALID,27.289,VALID,61,VALID,0.554297,
2010-05-15, 00:03:04,VALID,1001.21,VALID,0,VALID,86.2979,VALID,0,VALID,27.248,VALID,29,VALID,0.581641,
2010-05-15, 00:04:04,VALID,1001.21,VALID,0,VALID,86.4276,VALID,0,VALID,27.2264,VALID,41,VALID,0.949609,
2010-05-15, 00:05:04,VALID,1001.2,VALID,0,VALID,86.42,VALID,0,VALID,27.248,VALID,48,VALID,0.367969,
2010-05-15, 00:06:04,VALID,1001.18,VALID,0,VALID,86.4505,VALID,0,VALID,27.2285,VALID,75,VALID,0.296484,
2010-05-15, 00:07:04,VALID,1001.17,VALID,0,VALID,86.4962,VALID,0,VALID,27.2285,VALID,52,VALID,0.573438,
2010-05-15, 00:08:04,VALID,1001.12,VALID,0,VALID,86.4962,VALID,0,VALID,27.25,VALID,34,VALID,0.370313,
2010-05-15, 00:09:04,VALID,1001.13,VALID,0,VALID,86.6412,VALID,0,VALID,27.1895,VALID,90,VALID,0.500781,
2010-05-15, 00:10:04,VALID,1001.12,VALID,0,VALID,86.6412,VALID,0,VALID,27.1895,VALID,10,VALID,1.19648,
2010-05-15, 00:11:04,VALID,1001.13,VALID,0,VALID,86.5802,VALID,0,VALID,27.2285,VALID,54,VALID,0.616016,
2010-05-15, 00:12:04,VALID,1001.13,VALID,0,VALID,86.4428,VALID,0,VALID,27.2869,VALID,37,VALID,1.28516,
2010-05-15, 00:13:04,VALID,1001.09,VALID,0,VALID,86.1682,VALID,0,VALID,27.3259,VALID,46,VALID,0.821094,
2010-05-15, 00:14:04,VALID,1001.08,VALID,0,VALID,86.0843,VALID,0,VALID,27.3259,VALID,107,VALID,1.43242,
2010-05-15, 00:15:04,VALID,1001.06,VALID,0,VALID,85.9927,VALID,0,VALID,27.3649,VALID,85,VALID,1.01289,
2010-05-15, 00:16:04,VALID,1001.05,VALID,0,VALID,85.9012,VALID,0,VALID,27.3454,VALID,59,VALID,0.612891,
2010-05-15, 00:17:04,VALID,1001.05,VALID,0,VALID,85.9622,VALID,0,VALID,27.3454,VALID,46,VALID,0.590234,
2010-05-15, 00:18:04,VALID,1001.07,VALID,0,VALID,86.0309,VALID,0,VALID,27.3454,VALID,94,VALID,1.81875,
2010-05-15, 00:19:04,VALID,1001.04,VALID,0,VALID,85.9775,VALID,0,VALID,27.3649,VALID,32,VALID,1.03867,
2010-05-15, 00:20:04,VALID,1001.01,VALID,0,VALID,85.8249,VALID,0,VALID,27.4039,VALID,88,VALID,1.85039,
2010-05-15, 00:21:04,VALID,1001,VALID,0,VALID,85.68,VALID,0,VALID,27.4449,VALID,81,VALID,0.752344,
2010-05-15, 00:22:04,VALID,1001.01,VALID,0,VALID,85.741,VALID,0,VALID,27.4233,VALID,62,VALID,0.975,
2010-05-15, 00:23:04,VALID,1001.01,VALID,0,VALID,85.6342,VALID,0,VALID,27.4233,VALID,69,VALID,0.743359,
2010-05-15, 00:24:04,VALID,1000.97,VALID,0,VALID,85.6266,VALID,0,VALID,27.4428,VALID,82,VALID,1.85117,
2010-05-15, 00:25:04,VALID,1000.98,VALID,0,VALID,85.596,VALID,0,VALID,27.4428,VALID,50,VALID,0.936719,
2010-05-15, 00:26:04,VALID,1000.95,VALID,0,VALID,85.6037,VALID,0,VALID,27.4428,VALID,75,VALID,1.69297,
2010-05-15, 00:27:04,VALID,1000.95,VALID,0,VALID,85.6342,VALID,0,VALID,27.4428,VALID,86,VALID,1.76289,
2010-05-15, 00:28:04,VALID,1000.96,VALID,0,VALID,85.5808,VALID,0,VALID,27.4602,VALID,94,VALID,1.13086,
2010-05-15, 00:29:04,VALID,1000.92,VALID,0,VALID,85.6037,VALID,0,VALID,27.4623,VALID,73,VALID,0.481641,
2010-05-15, 00:30:04,VALID,1000.96,VALID,0,VALID,85.6494,VALID,0,VALID,27.4428,VALID,84,VALID,1.18672,
2010-05-15, 00:31:04,VALID,1000.93,VALID,0,VALID,85.5198,VALID,0,VALID,27.4818,VALID,102,VALID,1.65625,
2010-05-15, 00:32:04,VALID,1000.89,VALID,0,VALID,85.3901,VALID,0,VALID,27.5013,VALID,54,VALID,0.944531,
2010-05-15, 00:33:04,VALID,1000.91,VALID,0,VALID,85.3824,VALID,0,VALID,27.5013,VALID,111,VALID,0.552734,
2010-05-15, 00:34:04,VALID,1000.89,VALID,0,VALID,85.5045,VALID,0,VALID,27.4623,VALID,91,VALID,0.971875,
2010-05-15, 00:35:04,VALID,1000.87,VALID,0,VALID,85.4587,VALID,0,VALID,27.4818,VALID,95,VALID,2.03516,
2010-05-15, 00:36:04,VALID,1000.83,VALID,0,VALID,85.2375,VALID,0,VALID,27.5403,VALID,88,VALID,1.30508,
2010-05-15, 00:37:04,VALID,1000.82,VALID,0,VALID,85.1841,VALID,0,VALID,27.4992,VALID,55,VALID,0.515625,
2010-05-15, 00:38:04,VALID,1000.82,VALID,0,VALID,85.2985,VALID,0,VALID,27.4818,VALID,22,VALID,0.933203,
2010-05-15, 00:39:04,VALID,1000.78,VALID,0,VALID,85.4282,VALID,0,VALID,27.4644,VALID,96,VALID,1.3793,
2010-05-15, 00:40:04,VALID,1000.79,VALID,0,VALID,85.4969,VALID,0,VALID,27.4254,VALID,61,VALID,1.22227,
2010-05-15, 00:41:04,VALID,1000.75,VALID,0,VALID,85.5579,VALID,0,VALID,27.4039,VALID,15,VALID,1.28281,
2010-05-15, 00:42:04,VALID,1000.78,VALID,0,VALID,85.6037,VALID,0,VALID,27.3628,VALID,43,VALID,0.591797,
2010-05-15, 00:43:04,VALID,1000.78,VALID,0,VALID,85.7181,VALID,0,VALID,27.3865,VALID,45,VALID,0.322266,
2010-05-15, 00:44:04,VALID,1000.79,VALID,0,VALID,85.8325,VALID,0,VALID,27.3259,VALID,96,VALID,1.11836,
2010-05-15, 00:45:04,VALID,1000.83,VALID,0,VALID,85.8325,VALID,0,VALID,27.3238,VALID,61,VALID,1.60156,
2010-05-15, 00:46:04,VALID,1000.81,VALID,0,VALID,85.8325,VALID,0,VALID,27.3454,VALID,30,VALID,1.13242,
2010-05-15, 00:47:04,VALID,1000.87,VALID,0,VALID,85.8936,VALID,0,VALID,27.3064,VALID,108,VALID,1.18633,
2010-05-15, 00:48:04,VALID,1000.86,VALID,0,VALID,85.947,VALID,0,VALID,27.3064,VALID,95,VALID,0.74375,
2010-05-15, 00:49:04,VALID,1000.87,VALID,0,VALID,86.0309,VALID,0,VALID,27.2869,VALID,13,VALID,1.48008,
2010-05-15, 00:50:04,VALID,1000.85,VALID,0,VALID,86.1377,VALID,0,VALID,27.248,VALID,36,VALID,0.425391,
2010-05-15, 00:51:04,VALID,1000.85,VALID,0,VALID,86.2064,VALID,0,VALID,27.248,VALID,61,VALID,1.30313,
2010-05-15, 00:52:04,VALID,1000.82,VALID,0,VALID,86.1606,VALID,0,VALID,27.2675,VALID,360,VALID,1.12188,
2010-05-15, 00:53:04,VALID,1000.81,VALID,0,VALID,86.1377,VALID,0,VALID,27.2675,VALID,84,VALID,0.838672,
2010-05-15, 00:54:04,VALID,1000.81,VALID,0,VALID,86.1835,VALID,0,VALID,27.248,VALID,70,VALID,0.695703,
2010-05-15, 00:55:04,VALID,1000.8,VALID,0,VALID,86.2979,VALID,0,VALID,27.25,VALID,70,VALID,0.485938,
2010-05-15, 00:56:04,VALID,1000.78,VALID,0,VALID,86.3971,VALID,0,VALID,27.209,VALID,72,VALID,0.847266,
2010-05-15, 00:57:04,VALID,1000.79,VALID,0,VALID,86.4276,VALID,0,VALID,27.2111,VALID,77,VALID,0.437891,
2010-05-15, 00:58:04,VALID,1000.78,VALID,0,VALID,86.5268,VALID,0,VALID,27.17,VALID,73,VALID,0.232031,
2010-05-15, 00:59:04,VALID,1000.8,VALID,0,VALID,86.6641,VALID,0,VALID,27.1311,VALID,45,VALID,0.427344,
2010-05-15, 01:00:04,VALID,1000.8,VALID,0,VALID,86.8548,VALID,0,VALID,27.0921,VALID,86,VALID,0.503516,
2010-05-15, 01:01:04,VALID,1000.81,VALID,0,VALID,87.015,VALID,0,VALID,27.0726,VALID,63,VALID,0.689453,
2010-05-15, 01:02:04,VALID,1000.79,VALID,0,VALID,87.1066,VALID,0,VALID,27.0726,VALID,10,VALID,0.983984,
2010-05-15, 01:03:04,VALID,1000.79,VALID,0,VALID,87.1294,VALID,0,VALID,27.0726,VALID,73,VALID,1.31523,
2010-05-15, 01:04:04,VALID,1000.81,VALID,0,VALID,87.0837,VALID,0,VALID,27.0921,VALID,76,VALID,0.907031,
2010-05-15, 01:05:04,VALID,1000.77,VALID,0,VALID,87.0379,VALID,0,VALID,27.0726,VALID,31,VALID,0.439453,
2010-05-15, 01:06:04,VALID,1000.79,VALID,0,VALID,87.0989,VALID,0,VALID,27.0921,VALID,94,VALID,1.2293,
2010-05-15, 01:07:04,VALID,1000.77,VALID,0,VALID,87.0303,VALID,0,VALID,27.1116,VALID,82,VALID,1.36992,
2010-05-15, 01:08:04,VALID,1000.72,VALID,0,VALID,86.9769,VALID,0,VALID,27.1116,VALID,5,VALID,1.28867,
2010-05-15, 01:09:04,VALID,1000.73,VALID,0,VALID,86.9921,VALID,0,VALID,27.0921,VALID,32,VALID,0.324219,
2010-05-15, 01:10:04,VALID,1000.72,VALID,0,VALID,87.076,VALID,0,VALID,27.0726,VALID,31,VALID,0.862891,
2010-05-15, 01:11:04,VALID,1000.69,VALID,0,VALID,87.1676,VALID,0,VALID,27.0336,VALID,33,VALID,0.428516,
2010-05-15, 01:12:04,VALID,1000.66,VALID,0,VALID,87.2362,VALID,0,VALID,27.0142,VALID,33,VALID,0.288672,
2010-05-15, 01:13:04,VALID,1000.66,VALID,0,VALID,87.4575,VALID,0,VALID,26.9772,VALID,28,VALID,0.783984,
2010-05-15, 01:14:04,VALID,1000.63,VALID,0,VALID,87.6711,VALID,0,VALID,26.9362,VALID,1,VALID,0.449219,
2010-05-15, 01:15:04,VALID,1000.66,VALID,0,VALID,87.7321,VALID,0,VALID,26.9342,VALID,26,VALID,0.687109,
2010-05-15, 01:16:04,VALID,1000.64,VALID,0,VALID,87.7245,VALID,0,VALID,26.9752,VALID,19,VALID,0.749219,
2010-05-15, 01:17:04,VALID,1000.64,VALID,0,VALID,87.6787,VALID,0,VALID,26.9732,VALID,24,VALID,0.898438,
2010-05-15, 01:18:04,VALID,1000.62,VALID,0,VALID,87.6406,VALID,0.100563,VALID,26.9732,VALID,4,VALID,0.753906,
2010-05-15, 01:19:04,VALID,1000.61,VALID,0,VALID,87.6863,VALID,0.100563,VALID,26.9752,VALID,21,VALID,0.546484,
2010-05-15, 01:20:04,VALID,1000.6,VALID,0,VALID,87.6787,VALID,0,VALID,26.9947,VALID,31,VALID,1.00273,
2010-05-15, 01:21:04,VALID,1000.59,VALID,0,VALID,87.5033,VALID,0.100563,VALID,27.0511,VALID,66,VALID,1.3582,
2010-05-15, 01:22:04,VALID,1000.61,VALID,0,VALID,87.221,VALID,0.100563,VALID,27.1311,VALID,27,VALID,1.60586,
2010-05-15, 01:23:04,VALID,1000.58,VALID,0,VALID,86.9616,VALID,0,VALID,27.129,VALID,17,VALID,0.617188,
2010-05-15, 01:24:04,VALID,1000.57,VALID,0,VALID,86.8472,VALID,0,VALID,27.17,VALID,29,VALID,1.29609,
2010-05-15, 01:25:04,VALID,1000.59,VALID,0,VALID,86.6412,VALID,0,VALID,27.2069,VALID,16,VALID,1.73398,
2010-05-15, 01:26:04,VALID,1000.58,VALID,0,VALID,86.5039,VALID,0,VALID,27.248,VALID,34,VALID,1.08672,
2010-05-15, 01:27:04,VALID,1000.54,VALID,0,VALID,86.3666,VALID,0.100563,VALID,27.2675,VALID,17,VALID,1.04805,
2010-05-15, 01:28:04,VALID,1000.55,VALID,0,VALID,86.3818,VALID,0,VALID,27.2459,VALID,38,VALID,0.314453,
2010-05-15, 01:29:04,VALID,1000.53,VALID,0,VALID,86.4276,VALID,0,VALID,27.2264,VALID,41,VALID,0.560938,
2010-05-15, 01:30:04,VALID,1000.53,VALID,0,VALID,86.481,VALID,0,VALID,27.209,VALID,27,VALID,0.795703,
2010-05-15, 01:31:04,VALID,1000.55,VALID,0,VALID,86.5268,VALID,0,VALID,27.2111,VALID,69,VALID,0.496875,
2010-05-15, 01:32:04,VALID,1000.54,VALID,0,VALID,86.6717,VALID,0,VALID,27.1916,VALID,19,VALID,0.807813,
2010-05-15, 01:33:04,VALID,1000.53,VALID,0,VALID,86.7633,VALID,0,VALID,27.1506,VALID,32,VALID,0.988281,
2010-05-15, 01:34:04,VALID,1000.51,VALID,0,VALID,86.8853,VALID,0,VALID,27.1331,VALID,22,VALID,0.595703,
2010-05-15, 01:35:04,VALID,1000.49,VALID,0,VALID,87.015,VALID,0,VALID,27.1136,VALID,82,VALID,0.583594,
2010-05-15, 01:36:04,VALID,1000.5,VALID,0,VALID,86.9921,VALID,0,VALID,27.0921,VALID,32,VALID,0.731641,
2010-05-15, 01:37:04,VALID,1000.49,VALID,0,VALID,86.9464,VALID,0,VALID,27.1331,VALID,8,VALID,0.903125,
2010-05-15, 01:38:04,VALID,1000.46,VALID,0,VALID,86.9464,VALID,0,VALID,27.1116,VALID,31,VALID,0.780859,
2010-05-15, 01:39:04,VALID,1000.46,VALID,0,VALID,86.9158,VALID,0,VALID,27.1116,VALID,51,VALID,0.694141,
2010-05-15, 01:40:04,VALID,1000.48,VALID,0,VALID,86.8319,VALID,0,VALID,27.1506,VALID,63,VALID,0.317187,
2010-05-15, 01:41:04,VALID,1000.46,VALID,0,VALID,86.7785,VALID,0,VALID,27.1526,VALID,33,VALID,0.565234,
2010-05-15, 01:42:04,VALID,1000.44,VALID,0,VALID,86.8777,VALID,0,VALID,27.1116,VALID,54,VALID,0.377734,
2010-05-15, 01:43:04,VALID,1000.43,VALID,0,VALID,86.9464,VALID,0,VALID,27.0921,VALID,19,VALID,0.541016,
2010-05-15, 01:44:04,VALID,1000.45,VALID,0,VALID,86.9769,VALID,0,VALID,27.0942,VALID,37,VALID,2.18594,
2010-05-15, 01:45:04,VALID,1000.45,VALID,0,VALID,86.9769,VALID,0,VALID,27.1136,VALID,71,VALID,0.816406,
2010-05-15, 01:46:04,VALID,1000.44,VALID,0,VALID,86.8853,VALID,0,VALID,27.1331,VALID,52,VALID,1.16641,
2010-05-15, 01:47:04,VALID,1000.46,VALID,0,VALID,86.7327,VALID,0,VALID,27.1311,VALID,43,VALID,0.749609,
2010-05-15, 01:48:04,VALID,1000.44,VALID,0,VALID,86.7099,VALID,0,VALID,27.1721,VALID,20,VALID,1.09766,
2010-05-15, 01:49:04,VALID,1000.47,VALID,0,VALID,86.6412,VALID,0,VALID,27.1506,VALID,110,VALID,1.0043,
2010-05-15, 01:50:04,VALID,1000.44,VALID,0,VALID,86.5496,VALID,0,VALID,27.17,VALID,19,VALID,1.60977,
2010-05-15, 01:51:04,VALID,1000.48,VALID,0,VALID,86.4123,VALID,0,VALID,27.2111,VALID,101,VALID,0.615625,
2010-05-15, 01:52:04,VALID,1000.47,VALID,0,VALID,86.4047,VALID,0,VALID,27.2306,VALID,54,VALID,0.909375,
2010-05-15, 01:53:04,VALID,1000.45,VALID,0,VALID,86.3894,VALID,0,VALID,27.1895,VALID,35,VALID,0.962109,
2010-05-15, 01:54:04,VALID,1000.44,VALID,0,VALID,86.2598,VALID,0,VALID,27.2285,VALID,59,VALID,0.971875,
2010-05-15, 01:55:04,VALID,1000.4,VALID,0,VALID,86.1529,VALID,0,VALID,27.289,VALID,90,VALID,1.83945,
2010-05-15, 01:56:04,VALID,1000.41,VALID,0,VALID,86.0004,VALID,0,VALID,27.2869,VALID,355,VALID,0.654688,
2010-05-15, 01:57:04,VALID,1000.4,VALID,0,VALID,85.9699,VALID,0,VALID,27.2654,VALID,8,VALID,1.73125,
2010-05-15, 01:58:04,VALID,1000.4,VALID,0,VALID,85.9317,VALID,0,VALID,27.328,VALID,37,VALID,0.735547,
2010-05-15, 01:59:04,VALID,1000.4,VALID,0,VALID,85.7562,VALID,0,VALID,27.367,VALID,70,VALID,0.629297,
2010-05-15, 02:00:04,VALID,1000.4,VALID,0,VALID,85.6876,VALID,0,VALID,27.3649,VALID,83,VALID,1.24141,
2010-05-15, 02:01:04,VALID,1000.35,VALID,0,VALID,85.68,VALID,0,VALID,27.3238,VALID,38,VALID,0.676562,
2010-05-15, 02:02:04,VALID,1000.38,VALID,0,VALID,85.7562,VALID,0,VALID,27.3454,VALID,36,VALID,0.576563,
2010-05-15, 02:03:04,VALID,1000.32,VALID,0,VALID,85.802,VALID,0,VALID,27.3259,VALID,68,VALID,0.814062,
2010-05-15, 02:04:04,VALID,1000.37,VALID,0,VALID,85.802,VALID,0,VALID,27.3064,VALID,67,VALID,0.812109,
2010-05-15, 02:05:04,VALID,1000.34,VALID,0,VALID,85.947,VALID,0,VALID,27.2869,VALID,53,VALID,0.640234,
2010-05-15, 02:06:04,VALID,1000.36,VALID,0,VALID,86.0995,VALID,0,VALID,27.2285,VALID,40,VALID,0.696484,
2010-05-15, 02:07:04,VALID,1000.33,VALID,0,VALID,86.1453,VALID,0,VALID,27.2869,VALID,84,VALID,1.8,
2010-05-15, 02:08:04,VALID,1000.33,VALID,0,VALID,85.9851,VALID,0,VALID,27.2869,VALID,25,VALID,0.638672,
2010-05-15, 02:09:04,VALID,1000.36,VALID,0,VALID,86.0767,VALID,0,VALID,27.248,VALID,35,VALID,1.50781,
2010-05-15, 02:10:04,VALID,1000.34,VALID,0,VALID,86.1529,VALID,0,VALID,27.2285,VALID,33,VALID,0.245703,
2010-05-15, 02:11:04,VALID,1000.33,VALID,0,VALID,86.2064,VALID,0,VALID,27.25,VALID,33,VALID,1.88477,
2010-05-15, 02:12:04,VALID,1000.35,VALID,0,VALID,86.0614,VALID,0,VALID,27.248,VALID,63,VALID,1.18672,
2010-05-15, 02:13:04,VALID,1000.33,VALID,0,VALID,85.9622,VALID,0,VALID,27.2675,VALID,95,VALID,0.902344,
2010-05-15, 02:14:04,VALID,1000.33,VALID,0,VALID,85.947,VALID,0,VALID,27.248,VALID,34,VALID,0.724219,
2010-05-15, 02:15:04,VALID,1000.36,VALID,0,VALID,86.008,VALID,0,VALID,27.2459,VALID,68,VALID,1.52344,
2010-05-15, 02:16:04,VALID,1000.35,VALID,0,VALID,86.0538,VALID,0,VALID,27.248,VALID,32,VALID,1.35859,
2010-05-15, 02:17:04,VALID,1000.31,VALID,0,VALID,86.1377,VALID,0,VALID,27.2285,VALID,57,VALID,0.670313,
2010-05-15, 02:18:04,VALID,1000.34,VALID,0,VALID,86.2064,VALID,0,VALID,27.1895,VALID,24,VALID,1.16406,
2010-05-15, 02:19:04,VALID,1000.3,VALID,0,VALID,86.2903,VALID,0,VALID,27.17,VALID,53,VALID,1.05664,
2010-05-15, 02:20:04,VALID,1000.3,VALID,0,VALID,86.3818,VALID,0,VALID,27.1506,VALID,32,VALID,0.307031,
2010-05-15, 02:21:04,VALID,1000.32,VALID,0,VALID,86.3971,VALID,0,VALID,27.1485,VALID,46,VALID,1.45977,
2010-05-15, 02:22:04,VALID,1000.31,VALID,0,VALID,86.4123,VALID,0,VALID,27.1506,VALID,15,VALID,1.54023,
2010-05-15, 02:23:04,VALID,1000.32,VALID,0,VALID,86.1682,VALID,0,VALID,27.209,VALID,31,VALID,0.876172,
2010-05-15, 02:24:04,VALID,1000.3,VALID,0,VALID,86.0919,VALID,0,VALID,27.1875,VALID,37,VALID,0.277344,
2010-05-15, 02:25:04,VALID,1000.35,VALID,0,VALID,86.069,VALID,0,VALID,27.1895,VALID,100,VALID,1.15703,
2010-05-15, 02:26:04,VALID,1000.35,VALID,0,VALID,86.0843,VALID,0,VALID,27.168,VALID,68,VALID,0.464844,
2010-05-15, 02:27:04,VALID,1000.33,VALID,0,VALID,86.1453,VALID,0,VALID,27.1506,VALID,66,VALID,0.598437,
2010-05-15, 02:28:04,VALID,1000.31,VALID,0,VALID,86.214,VALID,0,VALID,27.1506,VALID,17,VALID,0.653125,
2010-05-15, 02:29:04,VALID,1000.34,VALID,0,VALID,86.2598,VALID,0,VALID,27.1506,VALID,108,VALID,0.703906,
2010-05-15, 02:30:04,VALID,1000.29,VALID,0,VALID,86.2445,VALID,0,VALID,27.1095,VALID,72,VALID,1.53437,
2010-05-15, 02:31:04,VALID,1000.27,VALID,0,VALID,86.2292,VALID,0,VALID,27.1095,VALID,25,VALID,1.20898,
2010-05-15, 02:32:04,VALID,1000.3,VALID,0,VALID,86.2216,VALID,0,VALID,27.1311,VALID,38,VALID,0.566797,
2010-05-15, 02:33:04,VALID,1000.31,VALID,0,VALID,86.2979,VALID,0,VALID,27.1116,VALID,65,VALID,0.583984,
2010-05-15, 02:34:04,VALID,1000.3,VALID,0,VALID,86.3589,VALID,0,VALID,27.0511,VALID,9,VALID,0.79375,
2010-05-15, 02:35:04,VALID,1000.32,VALID,0,VALID,86.3666,VALID,0,VALID,27.0921,VALID,25,VALID,0.830078,
2010-05-15, 02:36:04,VALID,1000.34,VALID,0,VALID,86.4123,VALID,0,VALID,27.0726,VALID,353,VALID,1.46406,
2010-05-15, 02:37:04,VALID,1000.35,VALID,0,VALID,86.2445,VALID,0,VALID,27.0726,VALID,70,VALID,0.646875,
2010-05-15, 02:38:04,VALID,1000.35,VALID,0,VALID,86.1301,VALID,0,VALID,27.1116,VALID,82,VALID,0.909766,
2010-05-15, 02:39:04,VALID,1000.38,VALID,0,VALID,86.0461,VALID,0,VALID,27.1311,VALID,36,VALID,0.364844,
2010-05-15, 02:40:04,VALID,1000.42,VALID,0,VALID,86.069,VALID,0,VALID,27.1311,VALID,38,VALID,0.9625,
2010-05-15, 02:41:04,VALID,1000.39,VALID,0,VALID,86.0461,VALID,0,VALID,27.1311,VALID,76,VALID,1.41445,
2010-05-15, 02:42:04,VALID,1000.4,VALID,0,VALID,85.9775,VALID,0,VALID,27.1095,VALID,28,VALID,1.73359,
2010-05-15, 02:43:04,VALID,1000.39,VALID,0,VALID,85.9699,VALID,0,VALID,27.1311,VALID,49,VALID,0.589063,
2010-05-15, 02:44:04,VALID,1000.37,VALID,0,VALID,86.0614,VALID,0,VALID,27.1116,VALID,31,VALID,0.555859,
2010-05-15, 02:45:04,VALID,1000.35,VALID,0,VALID,86.1835,VALID,0,VALID,27.0726,VALID,58,VALID,0.833984,
2010-05-15, 02:46:04,VALID,1000.38,VALID,0,VALID,86.3437,VALID,0,VALID,27.0552,VALID,24,VALID,1.15625,
2010-05-15, 02:47:04,VALID,1000.42,VALID,0,VALID,86.4657,VALID,0,VALID,26.9926,VALID,20,VALID,1.29727,
2010-05-15, 02:48:04,VALID,1000.44,VALID,0,VALID,86.5573,VALID,0,VALID,26.9947,VALID,27,VALID,1.08945,
2010-05-15, 02:49:04,VALID,1000.42,VALID,0,VALID,86.5496,VALID,0,VALID,26.9947,VALID,71,VALID,0.780469,
2010-05-15, 02:50:04,VALID,1000.4,VALID,0,VALID,86.5725,VALID,0,VALID,26.9926,VALID,20,VALID,2.41836,
2010-05-15, 02:51:04,VALID,1000.39,VALID,0,VALID,86.5496,VALID,0,VALID,27.0336,VALID,10,VALID,1.56953,
2010-05-15, 02:52:04,VALID,1000.33,VALID,0,VALID,86.275,VALID,0,VALID,27.0921,VALID,36,VALID,1.12734,
2010-05-15, 02:53:04,VALID,1000.38,VALID,0,VALID,86.0461,VALID,0,VALID,27.1095,VALID,14,VALID,1.68281,
2010-05-15, 02:54:04,VALID,1000.4,VALID,0,VALID,85.8859,VALID,0,VALID,27.129,VALID,28,VALID,1.19687,
2010-05-15, 02:55:04,VALID,1000.39,VALID,0,VALID,85.8096,VALID,0,VALID,27.17,VALID,31,VALID,0.382422,
2010-05-15, 02:56:04,VALID,1000.37,VALID,0,VALID,85.7639,VALID,0,VALID,27.1506,VALID,27,VALID,1.03281,
2010-05-15, 02:57:04,VALID,1000.35,VALID,0,VALID,85.741,VALID,0,VALID,27.1311,VALID,14,VALID,1.17305,
2010-05-15, 02:58:04,VALID,1000.37,VALID,0,VALID,85.7791,VALID,0,VALID,27.1506,VALID,47,VALID,0.536719,
2010-05-15, 02:59:04,VALID,1000.37,VALID,0,VALID,85.6571,VALID,0,VALID,27.1485,VALID,96,VALID,1.11133,
2010-05-15, 03:00:04,VALID,1000.4,VALID,0,VALID,85.6723,VALID,0,VALID,27.1721,VALID,31,VALID,0.65625,
2010-05-15, 03:01:04,VALID,1000.39,VALID,0,VALID,85.6418,VALID,0,VALID,27.1721,VALID,21,VALID,0.536328,
2010-05-15, 03:02:04,VALID,1000.4,VALID,0,VALID,85.7486,VALID,0,VALID,27.1116,VALID,101,VALID,0.811719,
2010-05-15, 03:03:04,VALID,1000.4,VALID,0,VALID,85.8402,VALID,0,VALID,27.0921,VALID,24,VALID,0.691016,
2010-05-15, 03:04:04,VALID,1000.41,VALID,0,VALID,85.9927,VALID,0,VALID,27.0726,VALID,60,VALID,1.53711,
2010-05-15, 03:05:04,VALID,1000.44,VALID,0,VALID,86.1224,VALID,0,VALID,27.0726,VALID,66,VALID,0.928125,
2010-05-15, 03:06:04,VALID,1000.38,VALID,0,VALID,86.0919,VALID,0,VALID,27.0726,VALID,8,VALID,1.75039,
2010-05-15, 03:07:04,VALID,1000.39,VALID,0,VALID,86.008,VALID,0,VALID,27.0726,VALID,87,VALID,1.62461,
2010-05-15, 03:08:04,VALID,1000.43,VALID,0,VALID,85.9927,VALID,0,VALID,27.0942,VALID,8,VALID,0.803516,
2010-05-15, 03:09:04,VALID,1000.4,VALID,0,VALID,85.947,VALID,0,VALID,27.0921,VALID,22,VALID,1.87383,
2010-05-15, 03:10:04,VALID,1000.4,VALID,0,VALID,85.9546,VALID,0,VALID,27.0921,VALID,55,VALID,1.38437,
2010-05-15, 03:11:04,VALID,1000.4,VALID,0,VALID,85.9699,VALID,0,VALID,27.0921,VALID,54,VALID,0.710938,
2010-05-15, 03:12:04,VALID,1000.4,VALID,0,VALID,86.0461,VALID,0,VALID,27.0726,VALID,86,VALID,0.85,
2010-05-15, 03:13:04,VALID,1000.38,VALID,0,VALID,86.0309,VALID,0,VALID,27.0511,VALID,68,VALID,0.532812,
2010-05-15, 03:14:04,VALID,1000.35,VALID,0,VALID,86.0614,VALID,0,VALID,27.0747,VALID,72,VALID,1.05938,
2010-05-15, 03:15:04,VALID,1000.32,VALID,0,VALID,86.0156,VALID,0,VALID,27.0511,VALID,73,VALID,1.18086,
2010-05-15, 03:16:04,VALID,1000.32,VALID,0,VALID,85.9699,VALID,0.100563,VALID,27.0726,VALID,20,VALID,0.792578,
2010-05-15, 03:17:04,VALID,1000.29,VALID,0,VALID,86.0233,VALID,0.100563,VALID,27.0531,VALID,30,VALID,1.01563,
2010-05-15, 03:18:04,VALID,1000.27,VALID,0,VALID,85.8554,VALID,0,VALID,27.0336,VALID,22,VALID,1.475,
2010-05-15, 03:19:04,VALID,1000.28,VALID,0,VALID,85.9317,VALID,0,VALID,27.0121,VALID,38,VALID,0.746875,
2010-05-15, 03:20:04,VALID,1000.25,VALID,0,VALID,85.9393,VALID,0.100563,VALID,27.0121,VALID,75,VALID,0.678125,
2010-05-15, 03:21:04,VALID,1000.24,VALID,0,VALID,85.9165,VALID,0,VALID,26.9926,VALID,44,VALID,0.674609,
2010-05-15, 03:22:04,VALID,1000.22,VALID,0,VALID,85.9088,VALID,0,VALID,26.9926,VALID,10,VALID,1.00117,
2010-05-15, 03:23:04,VALID,1000.22,VALID,0,VALID,85.947,VALID,0,VALID,26.9732,VALID,56,VALID,0.798437,
2010-05-15, 03:24:04,VALID,1000.24,VALID,0,VALID,85.9927,VALID,0,VALID,26.9732,VALID,42,VALID,1.48359,
2010-05-15, 03:25:04,VALID,1000.21,VALID,0,VALID,86.0385,VALID,0.100563,VALID,26.9752,VALID,51,VALID,0.522656,
2010-05-15, 03:26:04,VALID,1000.22,VALID,0,VALID,85.9775,VALID,0.100563,VALID,26.9732,VALID,86,VALID,1.31953,
2010-05-15, 03:27:04,VALID,1000.23,VALID,0,VALID,85.8554,VALID,0.100563,VALID,27.0121,VALID,66,VALID,1.0543,
2010-05-15, 03:28:04,VALID,1000.25,VALID,0,VALID,85.8554,VALID,0,VALID,27.0121,VALID,83,VALID,1.31953,
2010-05-15, 03:29:04,VALID,1000.26,VALID,0,VALID,85.8554,VALID,0,VALID,27.0121,VALID,112,VALID,1.2043,
2010-05-15, 03:30:04,VALID,1000.23,VALID,0,VALID,85.8783,VALID,0,VALID,27.0336,VALID,51,VALID,0.578125,
2010-05-15, 03:31:04,VALID,1000.25,VALID,0,VALID,85.8631,VALID,0,VALID,26.9947,VALID,78,VALID,0.936719,
2010-05-15, 03:32:04,VALID,1000.26,VALID,0,VALID,85.8707,VALID,0,VALID,26.9947,VALID,77,VALID,1.5207,
2010-05-15, 03:33:04,VALID,1000.22,VALID,0,VALID,85.6571,VALID,0,VALID,27.0531,VALID,93,VALID,1.23828,
2010-05-15, 03:34:04,VALID,1000.22,VALID,0,VALID,85.3519,VALID,0,VALID,27.1116,VALID,81,VALID,1.90742,
2010-05-15, 03:35:04,VALID,1000.25,VALID,0,VALID,85.268,VALID,0,VALID,27.1311,VALID,81,VALID,0.694141,
2010-05-15, 03:36:04,VALID,1000.23,VALID,0,VALID,85.1993,VALID,0,VALID,27.0921,VALID,64,VALID,0.955859,
2010-05-15, 03:37:04,VALID,1000.24,VALID,0,VALID,85.2299,VALID,0,VALID,27.1331,VALID,354,VALID,0.966406,
2010-05-15, 03:38:04,VALID,1000.23,VALID,0,VALID,85.1078,VALID,0,VALID,27.1311,VALID,28,VALID,0.821875,
2010-05-15, 03:39:04,VALID,1000.19,VALID,0,VALID,85.123,VALID,0,VALID,27.1311,VALID,84,VALID,1.98203,
2010-05-15, 03:40:04,VALID,1000.22,VALID,0,VALID,84.9323,VALID,0,VALID,27.1895,VALID,35,VALID,1.54531,
2010-05-15, 03:41:04,VALID,1000.23,VALID,0,VALID,84.7569,VALID,0,VALID,27.2285,VALID,73,VALID,1.55703,
2010-05-15, 03:42:04,VALID,1000.21,VALID,0,VALID,84.8026,VALID,0,VALID,27.2285,VALID,36,VALID,0.419922,
2010-05-15, 03:43:04,VALID,1000.24,VALID,0,VALID,84.7187,VALID,0,VALID,27.2285,VALID,46,VALID,2.33477,
2010-05-15, 03:44:04,VALID,1000.26,VALID,0,VALID,84.4593,VALID,0,VALID,27.3085,VALID,85,VALID,2.7543,
2010-05-15, 03:45:04,VALID,1000.24,VALID,0,VALID,84.2457,VALID,0,VALID,27.3454,VALID,25,VALID,1.15039,
2010-05-15, 03:46:05,VALID,1000.28,VALID,0,VALID,84.2076,VALID,0,VALID,27.3454,VALID,7,VALID,1.03086,